Regional Weather Roundup
Issued by NWS

Home | Current Version | Previous Version | Graphics & Text | Print | Product List | Glossary On
Versions: 1 2 3 4 5 6 7 8 9 10 11 12 13 14 15 16 17 18 19 20 21 22 23 24 25 26 27 28 29 30 31 32 33 34 35 36 37 38 39 40 41 42 43 44 45 46 47 48 49 50
000
ASUS43 KFSD 250702
RWRSD

WEATHER ROUNDUP FOR SOUTH DAKOTA
NATIONAL WEATHER SERVICE SIOUX FALLS SD
100 AM CST THU DEC 25 2014

NOTE: "FAIR" INDICATES FEW OR NO CLOUDS BELOW 12,000 FEET WITH NO
SIGNIFICANT WEATHER AND/OR OBSTRUCTIONS TO VISIBILITY.


SDZ001>005-009-010-012>017-250800-
NORTHWEST AND NORTH CENTRAL SOUTH DAKOTA

CITY           SKY/WX    TMP DP  RH WIND       PRES   REMARKS
FAITH            N/A     33  29  85 N15       29.45S WCI  23
MOBRIDGE       CLOUDY    29  25  85 CALM      29.46F
$$

SDZ012>016-024>037-041>051-057-063-072>074-250800-
SOUTHWEST AND SOUTH CENTRAL SOUTH DAKOTA

CITY           SKY/WX    TMP DP  RH WIND       PRES   REMARKS
RAPID CTY ARPT CLOUDY    34  25  69 NW12      29.44R WCI  25
PIERRE         CLOUDY    26  24  92 NE6       29.45F WCI  19
CUSTER         CLOUDY    34  20  56 CALM      29.40S
ELLSWORTH AFB  CLOUDY    34  25  71 N12       29.44R WCI  25
PHILIP         CLOUDY    29  25  85 CALM      29.45S
PINE RIDGE     CLOUDY    27  21  78 SW6       29.42F WCI  20
WINNER         FAIR      33  25  72 N7        29.46S WCI  27
$$

SDZ004>011-016>023-039-040-250800-
NORTHEAST SOUTH DAKOTA

CITY           SKY/WX    TMP DP  RH WIND       PRES   REMARKS
ABERDEEN       CLOUDY    29  25  85 SW7       29.51S WCI  22
WATERTOWN      CLOUDY    27  24  89 S8        29.49F WCI  19
SISSETON         N/A     32  25  75 CALM      29.50R
$$

SDZ017-020-022-023-036>040-048>070-250800-
SOUTHEAST SOUTH DAKOTA

CITY           SKY/WX    TMP DP  RH WIND       PRES   REMARKS
SIOUX FALLS    CLEAR     26  24  92 S8        29.54F WCI  18
HURON          PTCLDY    24  22  91 SE6       29.50F WCI  17
MITCHELL       MOCLDY    26  24  92 SE13      29.51F WCI  15
YANKTON        CLEAR     25  21  86 E3        29.55F
$$

ABBREVIATIONS USED IN REMARKS
   TC - TEMPERATURE IN CELSIUS
  WCI - WIND CHILL INDEX
   HX - HEAT INDEX
  VSB - VISIBILITY



USA.gov is the U.S. government's official web portal to all federal, state and local government web resources and services.